星链-36904(STARLINK-36904)

导读

STARLINK-36904(NORAD编号67977)是美国太空探索技术公司(SpaceX)星链(Starlink)星座中的v1.5版本卫星,于2021年11月13日发射入轨,目前仍正常工作。该卫星运行在近地轨道,轨道倾角53.192°,近地点约150公里,远地点约162公里,绕行周期约87.6分钟。作为星链项目的组成部分,它依托低轨布局为全球提供高速、低延迟的宽带互联网服务,可支持流媒体、在线游戏等应用,由SpaceX自主设计制造运营。

基本信息
目录编号:
67977
目录名称:
STARLINK-36904
国际标识:
2026-038S
轨道中心:
EARTH
卫星名称:
星链-36904
卫星全名:
星链-36904(STARLINK-36904)
卫星状态:
在轨 (已飞行200 天)
发射日期:
2026-02-25 UTC
国别 :
美国 (US)
星等 :
--
该卫星已列入 空间交会检测服务 Space Conjunction Data Service (SCDS) ,当前飞行风险评估等级: 无高风险
轨道信息
数据来源 国际轨道数据
星历时间: 2026-09-13T07:34:42+0800
9小时前
查看轨道信息
半长轴: 6843.659km
偏心率: 0.0002162
轨道倾角: 97.284°
近地点辐角 103.407°
升交点赤经 264.466°
平近点角 256.741°
近地点: 464.042km
远地点: 467.002km
周期: 93.906分钟
每日圈数: 15.334524
详细信息
固有亮度:
5
最大亮度:
2.5
卫星平台:
Starlink V1.0
覆盖范围:
全球
运营商:
太空探索技术公司
运营商所在国:
美国
制造商(研发单位):
太空探索技术公司
制造商所在国:
美国
使用方式:
暂无
卫星简介
Starlink 计划是 SpaceX 推出的全球卫星互联网项目,通过发射低轨道卫星,为全球尤其是偏远地区提供高速、低延迟的互联网服务。自 2019 年起,Starlink 已部署数千颗卫星,旨在缩小全球数字鸿沟,推动互联网普及。该项目还为军事、航空等行业提供通信支持,带来广泛经济效益。
2D轨道图
3D轨道图
轨道高度分析图
轨道倾角分析图
轨道综合分析图
查看轨道综合分析图
交会数据列表
事件ID 空间交会对象 最接近时刻(TCA) 交会距离 交会风险概率(CRP) 交会风险指数(CRI) 操作
CDM_260914-144504-941406-797721
2026-09-14T
14:45:12+0000
2.439 km
极远距离
1.834488E-6 低风险 0.4
CDM_260915-073305-503406-797721
2026-09-15T
07:33:00+0000
2.384 km
极远距离
1.16285E-6 低风险 0.36
与全量物体交会距离演化趋势
与全量物体交会风险概率演化趋势